Location: Mentone
(34.5413°N, 85.5351°W)
Time: 22:37:23
(UTC-05:00)

Cosmos 2026 Rocket - Visible Passes

Search period start: 01 July 2015 00:00
Search period end: 11 July 2015 00:00
Orbit: 941 x 1001 km, 82.9° (Epoch: 30 June)

Date Brightness Start Highest point End Pass type
(mag) Time Alt. Az. Time Alt. Az. Time Alt. Az.
01 Jul 4.3 01:08:03 10° N 01:14:07 59° ENE 01:14:07 59° ENE visible
01 Jul 5.7 02:55:03 10° NW 02:58:40 17° W 02:58:40 17° W visible
01 Jul 6.1 23:49:26 10° NE 23:52:11 13° ENE 23:53:15 13° ENE visible
02 Jul 4.1 01:31:58 10° N 01:37:48 71° NW 01:37:48 71° NW visible
03 Jul 5.5 00:11:41 10° NNE 00:16:44 25° ENE 00:16:57 25° ENE visible
03 Jul 4.7 01:56:18 10° NNW 02:01:30 40° WNW 02:01:30 40° WNW visible
04 Jul 4.7 00:34:58 10° N 00:40:39 45° ENE 00:40:39 45° ENE visible
04 Jul 5.5 02:21:11 10° NW 02:25:12 22° WNW 02:25:12 22° WNW visible
05 Jul 4.1 00:58:45 10° N 01:04:23 71° N 01:04:23 71° N visible
05 Jul 6.1 02:47:47 10° WNW 02:48:56 11° WNW 02:48:56 11° WNW visible
05 Jul 5.7 23:38:59 10° NNE 23:43:18 20° ENE 23:43:34 20° ENE visible
06 Jul 4.5 01:22:55 10° NNW 01:28:07 49° WNW 01:28:07 49° WNW visible
07 Jul 5.0 00:01:58 10° NNE 00:07:18 35° ENE 00:07:18 35° ENE visible
07 Jul 5.3 01:47:31 10° NNW 01:51:52 27° WNW 01:51:52 27° WNW visible
08 Jul 4.3 00:25:35 10° N 00:31:04 60° NE 00:31:04 60° NE visible
08 Jul 6.0 02:13:03 10° NW 02:15:37 15° WNW 02:15:37 15° WNW visible
08 Jul 5.9 23:06:32 10° NE 23:09:51 15° ENE 23:10:17 15° ENE visible
09 Jul 4.4 00:49:35 10° NNW 00:54:50 58° NW 00:54:50 58° NW visible
09 Jul 5.3 23:29:05 10° NNE 23:34:04 28° ENE 23:34:04 28° ENE visible
10 Jul 5.1 01:13:59 10° NNW 01:18:38 34° WNW 01:18:38 34° WNW visible
